Regional Weather Roundup
Issued by NWS State College, PA

Home | Current Version | Previous Version | Text Only | Print | Product List | Glossary Off
Versions: 1 2 3 4 5 6 7 8 9 10 11 12 13 14 15 16 17 18 19 20 21 22 23 24 25 26 27 28 29 30 31 32 33 34 35 36 37 38 39 40 41 42 43 44 45 46 47 48 49 50

000
ASUS41 KCTP 271803
RWRCTP

REGIONAL WEATHER ROUNDUP
NATIONAL WEATHER SERVICE STATE COLLEGE PA
200 PM EDT MON APR 27 2015

Note: "fair" indicates few or no clouds below 12,000 feet with no
significant weather and/or obstructions to visibility.

* = STATION THAT DOES NOT REPORT PRECIPITATION /E.G. RAIN...SNOW...ETC/
    THUNDER OR FOG.

PAZ002>004-007>009-013>016-020>023-029>032-271900-
WESTERN PENNSYLVANIA

CITY           SKY/WX    TMP DP  RH WIND       PRES   REMARKS
ERIE           CLOUDY    40  36  86 NW5       29.94R
MEADVILLE      CLOUDY    40  34  79 NW12      29.90R
FRANKLIN*      CLOUDY    41  34  75 W12       29.90S
NEW CASTLE     LGT RAIN  42  38  86 NW8G17    29.94R
BEAVER COUNTY  DRIZZLE   43  39  87 NW8G16    29.91S
BUTLER*        PTSUNNY   45  39  81 NW10      29.91R
PITTSBURGH INT PTSUNNY   44  40  85 NW13G23   29.90S
PITTSBURGH     LGT RAIN  45  37  73 NW12G23   29.88S
INDIANA*       PTSUNNY   48  37  66 NW14      29.89S
LATROBE        NOT AVBL
WASHINGTON CO* PTSUNNY   46  39  76 NW14      29.92S
$$

PAZ004>006-010>012-017>019-024>028-033>037-041-042-045-046-049>053-271900-
CENTRAL PENNSYLVANIA

CITY           SKY/WX    TMP DP  RH WIND       PRES   REMARKS
BRADFORD       LGT RAIN  41  36  82 NW10      29.83R
DUBOIS         LGT RAIN  46  37  71 NW12G18   29.82S
CLEARFIELD     LGT RAIN  48  36  63 NW12      29.82F
JOHNSTOWN      CLOUDY    44  34  67 W16G22    29.81F
ALTOONA        CLOUDY    48  35  60 NW18G24   29.82S
STATE COLLEGE  CLOUDY    50  32  50 NW9       29.79S
WILLIAMSPORT   CLOUDY    54  30  40 NW8       29.77R
SELINSGROVE    CLOUDY    53  32  44 NW9       29.78S
FT INDIANTOWN  CLOUDY    55  29  38 NW10      29.76S
CAPITAL CITY   CLOUDY    58  32  37 NW13      29.78S
HARRISBURG     MOSUNNY   57  32  38 W14       29.77S
YORK           CLOUDY    55  32  41 N10       29.78S
$$

PAZ038>040-043-044-047-048-054-055-060>062-067>071-271900-
EASTERN PENNSYLVANIA

CITY           SKY/WX    TMP DP  RH WIND       PRES   REMARKS
SCRANTON       LGT RAIN  50  35  56 NW12G18   29.75R
MOUNT POCONO   CLOUDY    48  32  53 NW13G21   29.71R
ALLENTOWN      CLOUDY    56  34  43 NW15G21   29.73S
QUAKERTOWN*    CLOUDY    55  32  41 NW10G18   29.74R
READING        CLOUDY    55  33  43 W12       29.74S
LANCASTER      CLOUDY    54  33  45 NW13      29.76S
COATESVILLE    CLOUDY    55  32  41 NW14      29.75S
POTTSTOWN      CLOUDY    55  32  41 NW13G20   29.75S
BLUE BELL      MOSUNNY   57  32  38 N6        29.72S
DOYLESTOWN     CLOUDY    55  32  41 NW8       29.71S
WILLOW GROVE   NOT AVBL
NORTH PHILA    CLOUDY    59  28  30 NW14      29.73S
PHILADELPHIA   CLOUDY    58  31  35 NW13      29.73S
$$



USA.gov is the U.S. government's official web portal to all federal, state and local government web resources and services.